Weather Roundup
Issued by NWS Springfield, MO

Home | Current Version | Previous Version | Text Only | Print | Product List | Glossary On
Versions: 1 2 3 4 5 6 7 8 9 10 11 12 13 14 15 16 17 18 19 20 21 22 23 24 25 26 27 28 29 30 31 32 33 34 35 36 37 38 39 40 41 42 43 44 45 46 47 48 49 50
000
NZUS99 KSGF 182107
HRRSGF

HOURLY WEATHER
NATIONAL WEATHER SERVICE SPRINGFIELD MO
400 PM CDT THU SEP 18 2014

......SGF CWA......

CITY           SKY/WX    TMP DP  RH WIND       PRES   REMARKS
SPRINGFIELD    CLOUDY    71  63  75 S10       29.99S
JOPLIN         PTSUNNY   76  63  64 E9        29.95F
WEST PLAINS    CLOUDY    66  60  81 NE7       30.03R
ROLLA          CLOUDY    70  60  70 SE6       30.00F
OSAGE BEACH    CLOUDY    70  61  73 SE8       30.01F
BRANSON        CLOUDY    72  64  78 E9        30.01F

......SURROUNDING SGF CWA......

CITY           SKY/WX    TMP DP  RH WIND       PRES   REMARKS
CHANUTE        PTSUNNY   75  65  70 E3        29.95S
PARSONS        PTSUNNY   74  66  76 VRB6      29.96R
COFFEYVILLE    PTSUNNY   72  65  78 NE6       29.94R
EMPORIA        MOSUNNY   76  66  71 NE13      29.94F
GROVE OK       PTSUNNY   81  66  61 NE5       29.94S
ROGERS AR      PTSUNNY   76  64  66 E10       29.98F
SILOAM SPRINGS MOSUNNY   79  63  57 SE7       29.95F
HARRISON AR    MOSUNNY   72  64  76 E8        30.00S
NEAR YELLVILLE CLOUDY    66  61  82 E7        29.99F

......KANSAS AND MISSOURI......

CITY           SKY/WX    TMP DP  RH WIND       PRES   REMARKS
KANSAS CTY INT CLOUDY    65  61  87 E8        30.01F
DOWNTOWN KC    CLOUDY    67  61  81 E9        30.00S
COLUMBIA       MOSUNNY   72  60  66 E12       30.01F
SEDALIA        CLOUDY    70  62  76 E7        30.01S
ST JOSEPH      CLOUDY    66  59  78 E7        30.01F
ST LOUIS       MOSUNNY   75  55  49 SE9       30.02F
SPIRIT OF STL  MOSUNNY   73  56  54 E9        30.01S
KIRKSVILLE     PTSUNNY   71  57  61 E7        30.05S
WICHITA        MOSUNNY   89  55  31 S16       29.91F
TOPEKA         CLOUDY    72  65  78 NE8       29.98F
OLATHE         CLOUDY    66  62  87 NE12      29.99S

......TENNESSEE......

CITY           SKY/WX    TMP DP  RH WIND       PRES   REMARKS
MEMPHIS        PTSUNNY   82  68  62 E8        29.92S
NASHVILLE      CLOUDY    76  56  49 N6        29.99S

......ARKANSAS.......

CITY           SKY/WX    TMP DP  RH WIND       PRES   REMARKS
FAYETTEVILLE   MOSUNNY   81  65  58 NE5       29.94F
FT SMITH       SUNNY     83  65  54 E7        29.90F
LITTLE ROCK    CLOUDY    78  67  68 NE6       29.93R

......OKLAHOMA.......

CITY           SKY/WX    TMP DP  RH WIND       PRES   REMARKS
TULSA          PTSUNNY   84  65  52 N3        29.90R
PONCA CITY     SUNNY     87  57  35 E7        29.90F
MCALESTER      SUNNY     87  65  47 S6        29.88F
OKLAHOMA CITY  MOSUNNY   88  64  44 SW3       29.90F

......IOWA............

CITY           SKY/WX    TMP DP  RH WIND       PRES   REMARKS
DES MOINES     MOSUNNY   74  51  44 S10       30.03F
QUAD CITIES    SUNNY     73  51  46 E7        30.06F

......ILLINOIS........

CITY           SKY/WX    TMP DP  RH WIND       PRES   REMARKS
QUINCY         MOSUNNY   72  51  47 E7        30.04S
CHICAGO        MOSUNNY   68  54  60 E13       30.12S




USA.gov is the U.S. government's official web portal to all federal, state and local government web resources and services.